Tracking 29088 objects as of 14-Jul-2024
HD Live streaming from Space Station
objects crossing your sky now

COSMOS 1275 DEB

Track COSMOS 1275 DEB now!
10-day predictions


NORAD ID: 42184
Int'l Code: 1981-053SY
Perigee: 966.0 km
Apogee: 1,105.9 km
Inclination: 83.0 °
Period: 105.7 minutes
Semi major axis: 7406 km
RCS: Unknown
Launch date: June 4, 1981
Source: Commonwealth of Independent States (former USSR) (CIS)
Launch site: PLESETSK MISSILE AND SPACE COMPLEX (PKMTR)

Note: This is SATELLITE DEBRIS
Your satellite tracking list
Your tracking list is empty




NASA's NSSDC Master Catalog

Two Line Element Set (TLE):
1 42184U 81053SY  24195.20428913  .00000269  00000-0  32197-3 0  9998
2 42184  83.0219  92.4911 0094433 225.8482 290.7192 13.61889051515715
Source of the keplerian elements: AFSPC